Language: 


Des rapports , des résumés tant et plus, au choix de chacun....


Données Historiques de Météogheer
Journalier Rapport pour Mars 21, 2017 Unitée:  Impériale    Métrique   Les deux
Suivant Jour »
Journalier Hebdomadaire Mensuel Annuel Sur mesure
  Max: Min: Moyenne:
Température: 54 °F 32 °F 47.5 °F
Point de rosée: 49.6 °F 29.5 °F 38.3 °F
Humidité: 98% 0% 72%
Vent: 17.4mph 0mph 7.5mph
Rafales: 20.4mph - -
Vent- - WSW
Pression: 29.9 in 0 in -
Pluie: 0.04 in    
Historical Graphs
 
 
Données tabulaires pour Mars 21, 2017
Heure Température Point de rosée Pression Vent Vent Rafales Humidité Pluie Taux (Horaire) Conditions
00:00 50.2 °F 49.6 °F 29.7 in WSW 10.5 mph 15.4 mph 98% 0 in
00:05 50.2 °F 49.6 °F 29.7 in West 14.5 mph 16.1 mph 98% 0 in
00:10 50.2 °F 49.5 °F 29.7 in WSW 7.6 mph 16.1 mph 97% 0 in
00:15 50.2 °F 49.5 °F 29.7 in West 9.8 mph 14.8 mph 97% 0 in
00:20 50 °F 49.3 °F 29.7 in WSW 10.5 mph 12.8 mph 97% 0 in
00:25 50 °F 49.3 °F 29.7 in WSW 12.8 mph 14.5 mph 97% 0 in
00:30 50 °F 49.3 °F 29.7 in WSW 13.2 mph 14.8 mph 97% 0 in
00:35 49.8 °F 48.9 °F 29.7 in WSW 11 mph 16.1 mph 97% 0 in
00:40 50 °F 49.3 °F 29.7 in WSW 12.3 mph 17.7 mph 97% 0 in
00:45 50 °F 49.3 °F 29.7 in WSW 12.5 mph 17.7 mph 97% 0 in
00:50 50 °F 48.9 °F 29.7 in WSW 14.1 mph 15.4 mph 96% 0 in
00:55 50 °F 48.9 °F 29.7 in WSW 8.5 mph 15.4 mph 96% 0 in
01:00 50 °F 48.9 °F 29.7 in WSW 13.2 mph 15.2 mph 96% 0 in
01:05 50 °F 48.9 °F 29.7 in WSW 11.4 mph 14.5 mph 96% 0 in
01:10 49.8 °F 48.7 °F 29.7 in WSW 10.1 mph 11.4 mph 96% 0 in
01:15 49.6 °F 48.6 °F 29.7 in WSW 8.1 mph 11.4 mph 96% 0 in
01:20 49.6 °F 48.6 °F 29.7 in WSW 7.8 mph 11 mph 96% 0 in
01:25 49.5 °F 48.4 °F 29.7 in WSW 8.5 mph 11 mph 96% 0 in
01:30 49.3 °F 48.2 °F 29.7 in WSW 8.1 mph 11 mph 96% 0 in
01:35 49.3 °F 48.2 °F 29.7 in WSW 7.6 mph 10.5 mph 96% 0 in
01:40 49.1 °F 48 °F 29.7 in WSW 6.3 mph 10.3 mph 96% 0 in
01:45 48.9 °F 47.8 °F 29.7 in WSW 6 mph 8.7 mph 96% 0 in
01:50 48.7 °F 47.7 °F 29.7 in WSW 7.4 mph 8.7 mph 96% 0 in
01:55 48.6 °F 47.5 °F 29.7 in WSW 7.6 mph 10.1 mph 96% 0 in
02:02 32 °F 47.5 °F 0 in WSW 5.4 mph 9.8 mph 0% 0 in
02:07 48.4 °F 47.7 °F 29.7 in WSW 10.1 mph 10.1 mph 97% 0 in
02:12 48.4 °F 47.7 °F 29.7 in WSW 8.5 mph 10.1 mph 97% 0 in
02:17 48.6 °F 47.8 °F 29.7 in WSW 6.3 mph 9.2 mph 97% 0 in
02:22 48.4 °F 47.7 °F 29.7 in WSW 7.6 mph 8.5 mph 97% 0 in
02:27 48.6 °F 48 °F 29.7 in WSW 10.5 mph 10.5 mph 98% 0 in
02:32 48.4 °F 47.8 °F 29.7 in WSW 8.5 mph 10.5 mph 98% 0 in
02:37 48.2 °F 47.5 °F 29.7 in WSW 6 mph 9.8 mph 97% 0 in
02:42 48 °F 47.1 °F 29.7 in WSW 7.4 mph 8.1 mph 97% 0 in
02:47 47.8 °F 47.1 °F 29.7 in WSW 8.5 mph 8.7 mph 97% 0 in
02:52 47.8 °F 47.1 °F 29.7 in WSW 8.7 mph 8.7 mph 97% 0 in
02:57 47.7 °F 47.1 °F 29.7 in WSW 6.3 mph 8.7 mph 98% 0 in
03:02 47.7 °F 47.1 °F 29.7 in SW 7.8 mph 10.3 mph 98% 0 in
03:07 32 °F 47.1 °F 29.7 in WSW 8.1 mph 10.3 mph 0% 0 in
03:12 47.8 °F 47.3 °F 29.7 in WSW 5.4 mph 8.9 mph 98% 0 in
03:17 47.8 °F 47.3 °F 29.7 in WSW 8.9 mph 8.9 mph 98% 0 in
03:22 47.8 °F 47.3 °F 29.7 in WSW 8.5 mph 11 mph 98% 0 in
03:27 47.8 °F 47.3 °F 29.7 in WSW 8.1 mph 11 mph 98% 0 in
03:32 47.7 °F 47.1 °F 29.7 in WSW 7.8 mph 8.7 mph 98% 0 in
03:37 47.5 °F 46.9 °F 29.7 in WSW 7.8 mph 8.7 mph 98% 0 in
03:42 47.5 °F 46.9 °F 29.7 in WSW 8.1 mph 9.8 mph 98% 0 in
03:47 47.3 °F 46.8 °F 29.7 in WSW 7.4 mph 9.8 mph 98% 0 in
03:52 47.5 °F 46.9 °F 29.7 in WSW 6.3 mph 8.5 mph 98% 0 in
03:57 47.5 °F 46.9 °F 29.7 in WSW 8.5 mph 10.7 mph 98% 0 in
04:02 47.7 °F 47.1 °F 29.7 in WSW 12.1 mph 12.1 mph 98% 0 in
04:07 47.7 °F 47.1 °F 29.7 in WSW 9.6 mph 13 mph 98% 0.01 in
04:12 47.7 °F 47.1 °F 29.7 in WSW 7.6 mph 13 mph 98% 0.01 in
04:17 47.7 °F 47.1 °F 29.7 in SSW 5.4 mph 9.6 mph 98% 0.01 in
04:22 47.7 °F 47.1 °F 29.7 in WSW 6.5 mph 8.5 mph 98% 0.01 in
04:27 47.5 °F 46.9 °F 29.7 in WSW 7.4 mph 8.5 mph 98% 0.01 in
04:32 47.3 °F 46.8 °F 29.7 in WSW 5.8 mph 8.1 mph 98% 0.01 in
04:37 47.3 °F 46.8 °F 29.7 in WSW 7.4 mph 8.7 mph 98% 0.01 in
04:42 47.3 °F 46.8 °F 29.7 in WSW 6.3 mph 8.7 mph 98% 0.01 in
04:47 47.1 °F 46.6 °F 29.7 in WSW 6.5 mph 8.7 mph 98% 0.01 in
04:52 47.1 °F 46.6 °F 29.7 in WSW 5.8 mph 8.7 mph 98% 0.01 in
04:57 46.9 °F 46.6 °F 29.7 in WSW 7.4 mph 8.5 mph 98% 0.01 in
05:02 46.8 °F 46.2 °F 29.7 in WSW 7.6 mph 8.1 mph 98% 0.01 in
05:07 46.8 °F 46.2 °F 29.7 in WSW 8.7 mph 8.7 mph 98% 0 in
05:12 46.6 °F 46 °F 29.7 in WSW 7.4 mph 8.7 mph 98% 0 in
05:17 46.6 °F 46 °F 29.7 in WSW 7.4 mph 10.1 mph 98% 0 in
05:22 46.6 °F 46 °F 29.7 in WSW 6.5 mph 10.1 mph 98% 0 in
05:27 46.6 °F 45.9 °F 29.7 in WSW 6.5 mph 9.4 mph 98% 0 in
05:32 46.6 °F 45.9 °F 29.7 in WSW 6.3 mph 9.4 mph 98% 0 in
05:37 46.6 °F 45.9 °F 29.7 in WSW 5.8 mph 8.1 mph 98% 0 in
05:42 46.6 °F 45.9 °F 29.7 in WSW 6.3 mph 7.6 mph 98% 0 in
05:47 46.6 °F 45.9 °F 29.7 in WSW 6.7 mph 8.1 mph 98% 0 in
05:52 46.6 °F 45.9 °F 29.8 in WSW 6.5 mph 8.1 mph 98% 0 in
05:57 46.6 °F 46 °F 29.8 in West 5.6 mph 7.8 mph 98% 0 in
06:02 46.6 °F 46 °F 29.8 in WSW 5.6 mph 8.7 mph 98% 0 in
06:07 46.6 °F 46 °F 29.8 in WSW 10.3 mph 11 mph 98% 0 in
06:12 46.6 °F 46 °F 29.7 in WSW 7.4 mph 11 mph 98% 0 in
06:17 46.6 °F 46 °F 29.7 in WSW 7.4 mph 10.3 mph 98% 0 in
06:22 46.6 °F 46 °F 29.7 in WSW 7.8 mph 9.6 mph 98% 0 in
06:27 46.6 °F 46 °F 29.7 in WSW 8.7 mph 8.7 mph 98% 0 in
06:32 46.6 °F 46 °F 29.7 in WSW 7.4 mph 8.7 mph 98% 0 in
06:37 46.6 °F 45.9 °F 29.7 in WSW 6.7 mph 8.1 mph 98% 0 in
06:42 46.6 °F 45.9 °F 29.7 in WSW 5.4 mph 8.1 mph 98% 0 in
06:47 46.6 °F 45.9 °F 29.7 in West 5.8 mph 8.1 mph 98% 0 in
06:52 46.2 °F 45.9 °F 29.7 in West 5.6 mph 7.8 mph 98% 0 in
06:58 46.2 °F 45.9 °F 29.7 in WSW 6.3 mph 8.5 mph 98% 0 in
07:03 46.2 °F 45.9 °F 29.7 in WSW 4.3 mph 8.5 mph 98% 0 in
07:08 46.2 °F 45.9 °F 29.7 in WSW 5.4 mph 7.8 mph 98% 0 in
07:13 46 °F 45.7 °F 29.7 in WSW 4 mph 6.5 mph 98% 0 in
07:18 46.2 °F 45.9 °F 29.7 in WSW 6 mph 8.5 mph 98% 0 in
07:23 46.2 °F 45.9 °F 29.7 in WSW 16.6 mph 16.6 mph 98% 0 in
07:28 45.9 °F 45.3 °F 29.7 in WSW 6.3 mph 18.6 mph 98% 0.03 in
07:33 46 °F 45.3 °F 29.7 in West 12.5 mph 18.6 mph 97% 0.03 in
07:38 46 °F 45.3 °F 29.8 in West 13 mph 13 mph 97% 0.03 in
07:43 46.2 °F 45.5 °F 29.8 in West 10.1 mph 13.2 mph 97% 0.03 in
07:48 46.2 °F 45.5 °F 29.8 in WNW 8.5 mph 13.2 mph 97% 0.03 in
07:53 46.2 °F 45.5 °F 29.8 in West 3.1 mph 12.8 mph 97% 0.03 in
07:58 46.2 °F 45.1 °F 29.8 in SSW 5.4 mph 11 mph 96% 0.03 in
08:03 46.2 °F 45.1 °F 29.8 in West 7.6 mph 12.1 mph 96% 0.03 in
08:08 46 °F 44.8 °F 29.8 in NNW 6.5 mph 12.1 mph 95% 0.03 in
08:13 46 °F 44.8 °F 29.8 in West 5.4 mph 12.3 mph 95% 0.03 in
08:18 46 °F 44.2 °F 29.8 in West 7.4 mph 13.2 mph 93% 0.03 in
08:23 46 °F 43.9 °F 29.8 in West 10.1 mph 13.2 mph 92% 0.03 in
08:28 46 °F 43.5 °F 29.8 in NE 8.1 mph 11 mph 91% 0 in
08:33 46 °F 43.3 °F 29.8 in NW 8.5 mph 11 mph 90% 0 in
08:38 46.6 °F 43.2 °F 29.8 in WSW 7.6 mph 11 mph 88% 0 in
08:43 46.6 °F 43 °F 29.8 in West 7.4 mph 12.3 mph 87% 0 in
08:48 46.6 °F 42.6 °F 29.8 in WNW 2.9 mph 12.3 mph 86% 0.01 in
08:53 46.9 °F 43 °F 29.8 in WNW 5.8 mph 11 mph 86% 0.01 in
08:58 46.8 °F 42.4 °F 29.8 in WSW 5.4 mph 12.5 mph 85% 0.01 in
09:03 46.9 °F 42.1 °F 29.8 in WNW 10.7 mph 13.2 mph 83% 0.01 in
09:08 47.5 °F 42.1 °F 29.8 in West 4 mph 14.8 mph 81% 0.01 in
09:13 47.7 °F 41.7 °F 29.8 in ENE 6 mph 15.4 mph 80% 0.01 in
09:18 48 °F 42.3 °F 29.8 in West 8.5 mph 15.4 mph 80% 0.01 in
09:23 48 °F 42.3 °F 29.8 in West 8.7 mph 15.4 mph 80% 0.01 in
09:28 48 °F 41.2 °F 29.8 in West 10.1 mph 17 mph 77% 0.01 in
09:33 48.4 °F 41.5 °F 29.8 in West 8.1 mph 17 mph 77% 0.01 in
09:38 48.6 °F 41.4 °F 29.8 in West 8.1 mph 14.5 mph 76% 0.01 in
09:43 48.6 °F 41.4 °F 29.8 in WSW 6.3 mph 13.9 mph 76% 0 in
09:48 48.2 °F 40.6 °F 29.8 in West 6.3 mph 17.2 mph 75% 0 in
09:53 48.4 °F 40.5 °F 29.8 in WSW 6 mph 17.2 mph 74% 0 in
09:58 48.4 °F 40.1 °F 29.8 in West 13 mph 13.2 mph 73% 0 in
10:03 48.4 °F 39.7 °F 29.8 in West 5.4 mph 13 mph 72% 0 in
10:08 48.2 °F 38.5 °F 29.8 in WSW 5.8 mph 14.5 mph 69% 0 in
10:13 48.4 °F 38.7 °F 29.8 in West 10.3 mph 14.8 mph 69% 0 in
10:18 48.9 °F 39.6 °F 29.8 in WSW 5.8 mph 14.8 mph 70% 0 in
10:23 49.1 °F 39.4 °F 29.9 in West 8.7 mph 13.4 mph 69% 0 in
10:28 49.3 °F 39.6 °F 29.9 in West 5.8 mph 13.4 mph 69% 0 in
10:33 48.9 °F 38.1 °F 29.9 in West 3.8 mph 12.8 mph 66% 0 in
10:38 48.9 °F 38.1 °F 29.9 in WSW 6.5 mph 12.8 mph 66% 0 in
10:43 48.9 °F 36.5 °F 29.9 in West 9.8 mph 15.4 mph 62% 0 in
10:48 49.1 °F 36.1 °F 29.9 in West 8.7 mph 15.4 mph 61% 0 in
10:53 48.9 °F 36.1 °F 29.9 in West 5.8 mph 15.4 mph 61% 0 in
10:58 48.6 °F 35.8 °F 29.9 in West 13.6 mph 15.4 mph 61% 0 in
11:03 48.9 °F 36.9 °F 29.9 in WNW 8.7 mph 15.4 mph 63% 0 in
11:08 49.1 °F 35.8 °F 29.9 in SSW 16.8 mph 17.7 mph 60% 0 in
11:13 48.9 °F 34.3 °F 29.9 in WNW 8.5 mph 17.7 mph 57% 0 in
11:18 48.9 °F 34 °F 29.9 in West 7.6 mph 17 mph 56% 0 in
11:23 49.1 °F 33.6 °F 29.9 in NNW 7.6 mph 15.2 mph 55% 0 in
11:28 49.3 °F 33.3 °F 29.9 in WNW 10.1 mph 15.2 mph 54% 0 in
11:33 49.3 °F 33.3 °F 29.9 in WNW 8.7 mph 12.8 mph 54% 0 in
11:38 49.5 °F 33.1 °F 29.9 in WNW 8.7 mph 14.8 mph 53% 0 in
11:43 49.5 °F 32.5 °F 29.9 in West 7.6 mph 15.2 mph 52% 0 in
11:48 49.5 °F 32.5 °F 29.9 in WSW 7.6 mph 15.2 mph 52% 0 in
11:53 49.5 °F 32.2 °F 29.8 in West 5.6 mph 15.4 mph 51% 0 in
11:59 49.5 °F 31.1 °F 29.8 in WSW 6 mph 15.4 mph 49% 0 in
12:04 49.6 °F 31.3 °F 29.8 in West 11 mph 13.2 mph 49% 0 in
12:09 49.3 °F 30.4 °F 29.9 in WSW 7.8 mph 13.2 mph 48% 0 in
12:14 49.5 °F 30 °F 29.9 in WNW 6.3 mph 12.3 mph 47% 0 in
12:19 49.6 °F 30.7 °F 29.9 in SW 10.3 mph 12.3 mph 48% 0 in
12:24 49.6 °F 30.2 °F 29.9 in NNW 4.3 mph 12.8 mph 47% 0 in
12:29 49.6 °F 30.2 °F 29.9 in WNW 5.4 mph 12.8 mph 47% 0 in
12:34 49.8 °F 30.4 °F 29.9 in West 7.6 mph 10.5 mph 47% 0 in
12:35 49.8 °F 30.4 °F 29.9 in West 9.6 mph 10.5 mph 47% 0 in
12:40 50 °F 31.1 °F 29.9 in WSW 8.1 mph 13 mph 48% 0 in
12:45 50.5 °F 31.5 °F 29.9 in North 6.3 mph 13 mph 48% 0 in
12:50 50.9 °F 31.8 °F 29.9 in WSW 13.2 mph 15.2 mph 48% 0 in
12:55 50.4 °F 31.5 °F 29.9 in West 11 mph 15.2 mph 48% 0 in
13:00 50.7 °F 31.3 °F 29.9 in West 6 mph 15.2 mph 47% 0 in
13:01 50.9 °F 31.3 °F 29.9 in WSW 9.8 mph 15.2 mph 47% 0 in
13:06 51.3 °F 31.6 °F 29.9 in WSW 11.9 mph 15.9 mph 47% 0 in
13:12 51.3 °F 31.6 °F 29.9 in West 17.4 mph 17.4 mph 47% 0 in
13:17 51.3 °F 31.1 °F 29.9 in NW 8.1 mph 17.4 mph 46% 0 in
13:22 51.3 °F 31.6 °F 29.9 in SSW 10.7 mph 14.8 mph 47% 0 in
13:27 51.4 °F 31.3 °F 29.9 in WSW 10.1 mph 14.3 mph 46% 0 in
13:32 52.3 °F 32.2 °F 29.9 in WSW 6.5 mph 14.5 mph 46% 0 in
13:37 52.5 °F 31.8 °F 29.9 in West 4.7 mph 14.5 mph 45% 0 in
13:42 53.1 °F 32.7 °F 29.9 in NNW 9.4 mph 13.6 mph 46% 0 in
13:47 53.1 °F 32.7 °F 29.9 in WSW 13 mph 14.8 mph 46% 0 in
13:52 52.5 °F 31.3 °F 29.9 in WSW 12.1 mph 16.8 mph 44% 0 in
13:57 52.2 °F 29.7 °F 29.9 in West 14.1 mph 19.2 mph 42% 0 in
14:02 51.8 °F 29.5 °F 29.9 in West 8.5 mph 19.2 mph 42% 0 in
14:07 52.5 °F 30.6 °F 29.9 in West 12.5 mph 15.2 mph 43% 0 in
14:12 52.3 °F 29.8 °F 29.9 in WSW 12.1 mph 13.2 mph 42% 0 in
14:17 52.5 °F 30.7 °F 29.9 in WNW 8.7 mph 13.2 mph 43% 0 in
14:22 52.5 °F 31.8 °F 29.9 in WSW 10.5 mph 13 mph 45% 0 in
14:27 52.5 °F 31.3 °F 29.9 in West 12.3 mph 13.6 mph 44% 0 in
14:32 51.8 °F 30.6 °F 29.9 in West 13.2 mph 20.4 mph 44% 0 in
14:33 51.8 °F 30.6 °F 29.9 in West 14.1 mph 20.4 mph 44% 0 in
14:38 52 °F 31.3 °F 29.9 in WSW 12.5 mph 20.4 mph 45% 0 in
14:43 52.2 °F 31.8 °F 29.9 in West 12.8 mph 16.1 mph 46% 0 in
14:48 52 °F 31.3 °F 29.9 in WSW 8.1 mph 17.7 mph 45% 0 in
14:53 51.8 °F 31.6 °F 29.9 in West 17.4 mph 17.9 mph 46% 0 in
14:58 52 °F 31.8 °F 29.9 in West 4.7 mph 17.9 mph 46% 0 in
15:03 52.3 °F 32.5 °F 29.9 in WSW 10.1 mph 16.6 mph 47% 0 in
15:08 51.8 °F 32.2 °F 29.9 in WSW 4 mph 13 mph 47% 0 in
15:13 52.3 °F 32.5 °F 29.9 in WSW 7.6 mph 15.4 mph 47% 0 in
15:18 53.2 °F 33.4 °F 29.9 in WSW 11 mph 16.1 mph 47% 0 in
15:23 52.5 °F 32.7 °F 29.9 in West 8.7 mph 16.1 mph 47% 0 in
15:28 53.2 °F 33.6 °F 29.9 in WSW 10.3 mph 15.9 mph 47% 0 in
15:33 53.2 °F 33.6 °F 29.9 in WSW 11 mph 18.6 mph 47% 0 in
15:38 53.8 °F 34 °F 29.9 in West 15.4 mph 18.6 mph 47% 0 in
15:43 53.8 °F 33.4 °F 29.9 in West 10.5 mph 15.4 mph 46% 0 in
15:48 54 °F 33.6 °F 29.9 in NW 9.8 mph 15.2 mph 46% 0 in
15:53 53.2 °F 32.4 °F 29.9 in West 11 mph 16.8 mph 45% 0 in
15:58 53.2 °F 32.4 °F 29.9 in WSW 7.8 mph 16.8 mph 45% 0 in
16:03 53.2 °F 32.9 °F 29.9 in West 15.9 mph 17.2 mph 46% 0 in
16:08 53.2 °F 32.4 °F 29.9 in WSW 12.5 mph 17.2 mph 45% 0 in
16:13 53.2 °F 32.4 °F 29.9 in WNW 15.4 mph 17.4 mph 45% 0 in
16:18 52.9 °F 32 °F 29.9 in West 9.8 mph 17.7 mph 45% 0 in
16:23 53.2 °F 32.4 °F 29.9 in WNW 14.5 mph 17.7 mph 45% 0 in
16:28 52.3 °F 32.2 °F 29.9 in WSW 10.5 mph 15.2 mph 46% 0 in
16:33 51.8 °F 31.6 °F 29.9 in WSW 6.5 mph 15.4 mph 46% 0 in
16:38 51.6 °F 32 °F 29.9 in WSW 5.6 mph 15.4 mph 47% 0 in
16:43 52.5 °F 32.7 °F 29.9 in WSW 3.6 mph 14.1 mph 47% 0 in
16:48 51.3 °F 31.6 °F 29.9 in West 12.1 mph 16.1 mph 47% 0 in
16:53 51.8 °F 32.2 °F 29.9 in West 12.1 mph 16.1 mph 47% 0 in
16:58 52 °F 32.4 °F 29.9 in WSW 10.1 mph 15.4 mph 47% 0 in
17:03 52 °F 31.8 °F 29.9 in West 7.2 mph 15.4 mph 46% 0 in
17:08 51.8 °F 31.6 °F 29.9 in WSW 13 mph 14.5 mph 46% 0 in
17:13 51.6 °F 32 °F 29.9 in West 8.7 mph 17.7 mph 47% 0 in
17:18 51.6 °F 31.5 °F 29.9 in WSW 8.7 mph 17.7 mph 46% 0 in
17:23 51.4 °F 31.8 °F 29.9 in West 13.2 mph 15.7 mph 47% 0 in
17:28 51.3 °F 32.2 °F 29.9 in West 10.7 mph 15.4 mph 48% 0 in
17:33 50.9 °F 31.3 °F 29.9 in WSW 10.3 mph 16.3 mph 47% 0 in
17:38 50.7 °F 31.6 °F 29.9 in West 8.1 mph 16.3 mph 48% 0 in
17:43 50.4 °F 31.5 °F 29.9 in West 8.1 mph 14.5 mph 48% 0 in
17:48 50.2 °F 31.3 °F 29.9 in West 15.9 mph 15.9 mph 48% 0 in
17:53 49.6 °F 30.2 °F 29.9 in West 13.6 mph 17 mph 47% 0 in
17:58 49.3 °F 30.4 °F 29.9 in West 12.3 mph 17 mph 48% 0 in
18:03 48.9 °F 30.6 °F 29.9 in West 12.8 mph 16.3 mph 49% 0 in
18:08 48.4 °F 30.6 °F 29.9 in WSW 7.6 mph 15.4 mph 50% 0 in
18:13 48 °F 30.7 °F 29.9 in WSW 9.8 mph 15.2 mph 51% 0 in
18:18 47.8 °F 31.6 °F 29.9 in WSW 13 mph 14.8 mph 53% 0 in
18:23 47.7 °F 31.5 °F 29.9 in WSW 12.3 mph 17 mph 53% 0 in
18:28 47.5 °F 31.6 °F 29.9 in WSW 8.5 mph 17 mph 54% 0 in
18:34 47.1 °F 31.8 °F 29.9 in West 7.2 mph 12.8 mph 55% 0 in
18:38 46.9 °F 32.2 °F 29.9 in WSW 8.7 mph 12.1 mph 56% 0 in
18:43 46.8 °F 32.4 °F 29.9 in WSW 9.2 mph 12.1 mph 57% 0 in
18:48 46.8 °F 32.7 °F 29.9 in West 10.5 mph 13 mph 58% 0 in
18:54 46.6 °F 32.5 °F 29.9 in WSW 12.8 mph 13 mph 58% 0 in
18:59 46.2 °F 32.7 °F 29.9 in West 6.5 mph 12.8 mph 59% 0 in
19:04 46 °F 33.1 °F 29.9 in West 9.8 mph 11 mph 60% 0 in
19:09 45.9 °F 33.3 °F 29.9 in WSW 7.6 mph 10.1 mph 61% 0 in
19:14 45.3 °F 32.7 °F 29.9 in WSW 4.9 mph 8.7 mph 61% 0 in
19:19 45 °F 32.5 °F 29.9 in WSW 4.3 mph 7.2 mph 62% 0 in
19:24 44.2 °F 32.5 °F 29.9 in Calm   6.3 mph 63% 0 in
19:29 44.1 °F 32.5 °F 29.9 in Calm   5.6 mph 64% 0 in
19:34 43.5 °F 32.5 °F 29.9 in WSW 3.8 mph 5.6 mph 65% 0 in
19:39 43.5 °F 32.9 °F 29.9 in Calm   4.9 mph 66% 0 in
19:44 43.2 °F 32.9 °F 29.9 in Calm   4.9 mph 67% 0 in
19:49 43 °F 32.7 °F 29.9 in Calm   3.8 mph 67% 0 in
19:54 43 °F 33.1 °F 29.9 in Calm   4 mph 68% 0 in
19:59 43.2 °F 33.3 °F 29.9 in SSW 4.9 mph 5.6 mph 68% 0 in
20:04 43.5 °F 34 °F 29.9 in SSW 4.5 mph 6 mph 69% 0 in
20:09 43.5 °F 34.2 °F 29.9 in SSW 4.9 mph 6 mph 69% 0 in
20:14 43.5 °F 34.2 °F 29.9 in SW 4.9 mph 7.6 mph 69% 0 in
20:19 43.9 °F 34.3 °F 29.9 in WSW 6.5 mph 7.6 mph 69% 0 in
20:24 43.9 °F 34.3 °F 29.9 in SW 4 mph 7.4 mph 69% 0 in
20:29 43.9 °F 34.3 °F 29.9 in SW 6.5 mph 7.2 mph 69% 0 in
20:34 43.5 °F 34.2 °F 29.9 in SW 4.5 mph 7.4 mph 69% 0 in
20:40 43.5 °F 34.2 °F 29.9 in SSW 3.8 mph 7.4 mph 69% 0 in
20:45 43.5 °F 34 °F 29.9 in SSW 3.8 mph 6.5 mph 69% 0 in
20:50 43.2 °F 33.6 °F 29.9 in South 1.6 mph 5.6 mph 69% 0 in
20:55 43 °F 33.4 °F 29.9 in South 1.6 mph 4 mph 69% 0 in
21:00 42.6 °F 33.1 °F 29.9 in SSW 4 mph 4 mph 69% 0 in
21:05 42.3 °F 33.1 °F 29.9 in Calm   4 mph 70% 0 in
21:10 42.1 °F 33.1 °F 29.9 in Calm   4 mph 70% 0 in
21:15 41.9 °F 33.3 °F 29.9 in SSW 2.7 mph 4.3 mph 71% 0 in
21:17 41.7 °F 33.1 °F 29.9 in Calm   4.3 mph 71% 0 in
21:22 41.7 °F 33.1 °F 29.9 in South 3.4 mph 4.3 mph 71% 0 in
21:27 41.7 °F 33.3 °F 29.9 in SSW 3.8 mph 6 mph 72% 0 in
21:32 41.7 °F 33.3 °F 29.9 in Calm   6 mph 72% 0 in
21:37 41.9 °F 34 °F 29.9 in SSW 1.6 mph 5.6 mph 73% 0 in
21:42 41.9 °F 34 °F 29.9 in SSW 1.1 mph 6.3 mph 73% 0 in
21:47 42.1 °F 34.3 °F 29.9 in Calm   6.3 mph 74% 0 in
21:52 42.1 °F 34.3 °F 29.9 in SW 3.8 mph 6.3 mph 74% 0 in
21:57 42.3 °F 34.9 °F 29.9 in SW 3.6 mph 6.5 mph 75% 0 in
22:02 42.3 °F 34.9 °F 29.9 in SSW 4.7 mph 6.5 mph 75% 0 in
22:07 42.1 °F 34.7 °F 29.9 in SW 5.4 mph 6.3 mph 75% 0 in
22:12 42.1 °F 34.7 °F 29.9 in Calm   6 mph 75% 0 in
22:17 41.9 °F 34.2 °F 29.9 in Calm   5.8 mph 74% 0 in
22:22 41.5 °F 34 °F 29.9 in SSW 3.6 mph 5.4 mph 74% 0 in
22:27 41.4 °F 33.6 °F 29.9 in South 1.6 mph 5.4 mph 74% 0 in
22:32 41.2 °F 33.4 °F 29.9 in Calm   3.6 mph 74% 0 in
22:37 41.2 °F 33.8 °F 29.9 in SSW 2.9 mph 3.4 mph 75% 0 in
22:42 41 °F 33.6 °F 29.9 in SSW 4.3 mph 4.9 mph 75% 0 in
22:47 41 °F 33.6 °F 29.9 in Calm   4.9 mph 75% 0 in
22:52 40.8 °F 33.4 °F 29.9 in Calm   4.3 mph 75% 0 in
22:57 40.6 °F 33.6 °F 29.9 in Calm   3.8 mph 76% 0 in
23:02 40.5 °F 33.4 °F 29.9 in Calm     76% 0 in
23:07 40.1 °F 33.3 °F 29.9 in Calm   3.8 mph 76% 0 in
23:12 39.7 °F 32.7 °F 29.9 in Calm   4 mph 76% 0 in
23:17 39.6 °F 33.1 °F 29.9 in Calm   4 mph 77% 0 in
23:22 39.6 °F 33.1 °F 29.9 in South 4 mph 4.5 mph 77% 0 in
23:28 39.2 °F 32.5 °F 29.9 in Calm   4.7 mph 77% 0 in
23:33 39.2 °F 32.5 °F 29.9 in SSW 3.1 mph 4.7 mph 77% 0 in
23:38 38.8 °F 32.5 °F 29.9 in Calm   3.1 mph 78% 0 in
23:43 38.7 °F 32.4 °F 29.9 in Calm   2.5 mph 78% 0 in
23:48 38.5 °F 32.4 °F 29.9 in Calm   2.7 mph 78% 0 in
23:53 38.5 °F 32.5 °F 29.9 in Calm   2.9 mph 79% 0 in
23:58 38.1 °F 32.2 °F 29.9 in Calm   2.9 mph 79% 0 in
Données Historique de Météo Turbie

Mise a jour : 21/06/2018 04:30:14
Généré par Cumulus 1.9.4 (1099)